SCP
0 0 1 1 1 0 2 2 2 3 2 1 1 1 1 1 1 1 2 2 2 1 2 1 2 2 2 3 2 2 2 1 1 0 0 0 1 0 0 0 0 0 0
0 0 1 2 4 3 1 3 3 4 4 2 1 2 2 2 1 1 3 4 4 2 3 3 3 3 3 2 2 1 1 1 1 0 0 0 1 1 0 0 0 0 0
0 0 0 2 6 7 4 6 4 4 4 2 3 3 3 3 2 3 6 7 4 5 5 4 4 3 3 3 2 1 0 0 1 0 0 0 0 0 0 0 0 0 0
0 0 0 1 3 8 8 5 3 3 3 4 2 2 3 3 4 6 8 9 7 6 5 4 4 4 3 1 0 0 0 0 0 0 0 0 0 0 0 0 0 0 0
0 1 1 0 1 4 8 8 6 5 4 2 3 2 2 3 7 7 9 7 7 4 4 4 4 2 1 1 0 0 0 0 0 0 0 0 0 0 0 0 0 0 0
0 0 1 1 2 2 3 10 7 5 5 3 2 3 2 3 6 8 10 7 5 4 4 4 3 2 1 0 0 0 0 0 0 0 0 0 0 0 0 0 0 0 0
0 0 0 1 1 1 0 2 9 8 3 3 2 1 6 4 7 6 9 5 4 3 3 2 1 0 0 0 0 0 0 0 0 0 0 0 0 0 0 0 0 0 0
0 0 0 0 0 0 0 -0 0 -0 1 2 1 2 2 5 7 9 9 8 5 2 1 0 0 0 0 0 0 0 0 0 0 0 0 0 0 0 0 0 0 0 0
0 0 0 0 0 0 0 0 0 0 0 0 1 3 2 4 5 10 9 9 5 1 0 0 0 0 0 0 0 0 0 0 0 0 0 0 0 0 0 0 0 0 0
0 0 0 0 0 -0 -0 0 0 0 1 1 1 2 3 4 4 8 11 5 2 0 0 0 0 0 0 0 0 0 0 0 0 0 0 0 0 0 0 0 0 0 0
0 0 0 0 0 0 0 0 0 0 0 2 1 1 2 4 5 5 5 1 0 0 0 0 0 0 0 0 0 0 0 0 0 0 0 0 0 0 0 0 0 0 0
0 0 0 0 0 0 0 0 0 0 0 1 2 1 3 4 4 3 2 0 0 0 0 0 0 0 0 0 0 0 0 0 0 0 0 0 0 0 0 0 0 0 0
0 0 -0 0 -0 0 0 0 0 0 0 0 1 2 4 4 3 2 0 0 0 0 0 0 0 0 0 0 0 0 0 0 0 0 0 0 0 0 0 0 0 0 0
0 0 -0 -0 -0 -0 -0 0 0 0 0 0 0 1 1 1 1 0 0 0 0 0 0 0 0 0 0 0 0 0 0 0 0 0 0 0 0 0 0 0 0 0 0
0 0 0 0 -0 -0 0 0 -0 0 0 0 0 1 1 1 0 0 0 0 0 0 0 0 0 0 0 0 0 0 0 0 0 0 0 0 0 0 0 0 0 0 0
0 0 0 0 -0 -0 0 0 0 0 0 0 0 1 0 0 0 0 0 0 0 0 0 0 0 0 0 0 0 0 0 0 0 0 0 0 0 0 0 -0 0 0 0
0 0 0 0 0 0 -0 0 0 0 0 0 0 0 1 0 0 0 0 0 0 0 0 0 0 0 0 0 0 0 0 0 0 0 0 0 0 0 0 0 0 0 0
-0 0 0 0 0 0 -0 -0 0 0 0 0 0 0 0 0 0 0 0 0 0 0 0 0 0 0 0 0 0 0 0 0 0 0 0 0 0 0 0 0 0 0 0
-0 -0 0 0 0 0 0 0 0 0 0 0 0 0 0 0 0 0 0 0 0 0 0 0 0 0 0 0 0 0 0 0 0 0 0 0 0 0 0 0 0 0 0
0 0 0 0 0 0 0 0 0 0 0 0 0 0 0 0 0 0 0 0 0 0 0 0 0 0 0 0 0 0 0 0 0 0 0 0 0 0 0 0 0 0 0
0 0 0 0 0 0 0 0 0 0 0 0 0 0 0 0 0 0 0 0 0 0 0 0 0 0 0 0 0 0 0 0 0 0 0 0 0 0 0 0 0 0 0
-0 0 0 0 0 0 0 0 0 0 0 0 0 0 0 0 0 0 0 0 0 0 0 0 0 0 0 0 0 0 0 0 0 0 0 0 0 0 0 0 0 0 0
0 0 0 0 0 0 0 -0 0 0 0 0 0 0 0 0 0 0 0 0 0 0 0 0 0 -0 -0 0 -0 -0 0 0 0 0 0 0 0 0 0 0 0 0 0
-0 -0 0 0 -0 -0 -0 -0 0 0 0 0 0 0 0 0 0 0 0 0 0 0 0 0 0 0 0 0 0 0 0 0 0 0 0 0 0 0 0 0 0 0 0
0 0 -0 0 0 0 0 0 0 0 -0 0 0 0 -0 -0 -0 -0 -0 -0 0 0 0 0 0 0 0 0 0 0 0 0 0 0 0 0 0 0 0 0 0 0 0
0 0 0 0 0 -0 0 0 0 -0 -0 0 0 0 0 -0 -0 -0 0 0 -0 -0 -0 -0 0 0 0 0 0 0 0 0 0 0 0 0 0 0 0 0 0 0 0
Wind_Speed_500mb
38 68 72 72 74 73 70 70 72 70 68 61 59 54 54 54 47 45 40 41 40 23 21 21 32 29 24 22 28 26 18 12 22 27 28 16 11 18 10 2 12 16 24
50 43 72 77 84 84 82 77 76 74 78 74 65 60 55 56 49 48 47 48 45 31 38 33 29 21 24 24 24 22 15 2 15 21 15 12 19 11 4 13 8 18 32
41 48 44 83 87 90 88 84 83 88 86 79 69 56 51 49 49 50 54 61 48 43 46 36 32 24 23 20 22 16 9 12 5 13 12 9 10 13 16 14 21 18 24
47 55 53 47 87 93 97 96 92 91 97 91 76 74 75 73 71 68 67 68 58 60 50 39 37 26 26 26 22 14 12 6 9 2 5 11 15 10 15 13 18 29 29
72 71 67 59 54 95 102 107 101 94 91 96 89 77 76 72 66 63 67 66 61 60 47 41 37 31 33 29 22 14 14 8 15 6 6 3 5 10 8 19 30 25 23
69 77 76 60 56 23 67 105 106 97 82 81 81 74 78 73 68 76 72 71 60 53 53 47 39 36 35 28 23 17 16 15 13 12 8 4 4 10 9 15 22 29 25
69 70 78 84 87 86 83 39 81 67 63 72 71 77 70 73 68 65 76 81 70 62 59 53 45 41 37 33 23 22 18 17 12 18 12 2 3 7 7 12 16 23 20
75 75 76 83 90 98 98 73 36 36 74 68 64 62 75 58 75 65 81 78 65 59 63 54 47 44 37 32 26 23 21 18 15 13 9 11 4 11 11 12 19 27 24
68 70 73 83 86 89 96 89 43 79 89 34 23 41 52 72 73 67 77 63 54 61 56 51 49 42 40 32 31 29 22 17 16 11 11 6 9 13 9 12 14 21 26
68 72 73 81 86 74 89 84 58 50 45 38 30 34 58 65 68 69 75 71 67 67 55 53 50 45 38 36 34 27 25 22 18 15 10 8 7 7 12 13 14 14 21
81 75 78 77 80 82 72 85 76 63 61 58 47 53 62 65 62 68 77 70 71 66 56 55 51 46 39 41 34 27 24 22 23 17 11 5 10 12 16 13 11 22 20
100 72 72 81 84 93 89 77 80 69 61 59 53 52 60 64 61 69 67 65 67 67 54 53 51 47 46 44 38 32 24 16 11 18 14 10 13 16 11 17 18 18 21
84 86 82 85 82 83 87 86 74 84 77 65 59 61 63 64 69 74 66 65 71 57 52 52 52 46 42 41 37 36 33 27 25 18 15 12 14 16 19 21 25 25 28
75 79 82 83 91 89 90 85 80 75 85 73 64 68 67 68 73 72 70 69 63 56 54 51 46 41 37 39 40 37 30 20 17 21 14 14 14 18 23 32 27 26 30
78 83 88 92 89 92 97 99 91 86 93 98 72 61 67 78 77 67 65 59 58 65 58 54 48 41 37 33 30 26 23 21 19 15 14 12 22 21 23 27 30 30 30
88 87 84 83 91 99 94 95 98 94 89 94 75 66 74 55 62 63 61 60 61 58 53 53 51 47 52 45 42 33 20 15 16 15 18 20 16 19 26 33 28 26 24
80 85 85 94 85 83 93 103 106 85 88 89 67 52 69 66 74 66 63 62 64 59 57 50 50 50 44 40 37 24 20 19 20 20 18 22 13 25 23 21 25 25 24
79 81 82 77 78 77 77 81 93 88 81 74 63 46 69 77 65 63 60 58 58 61 60 55 51 49 41 31 24 19 17 18 18 18 17 18 24 21 25 28 29 30 27
74 79 77 75 72 57 49 51 52 57 41 44 54 49 67 71 69 69 67 67 67 65 59 59 49 37 29 23 15 19 20 19 16 17 17 22 19 30 35 34 34 32 25
72 76 81 85 78 59 50 53 52 35 14 21 32 72 80 85 80 70 64 61 60 53 47 41 31 22 15 13 14 21 21 16 13 2 22 22 27 32 33 38 38 36 29
67 80 83 95 80 82 70 68 67 67 48 41 42 43 64 75 79 69 61 52 47 39 27 14 6 2 1 5 10 19 18 18 17 19 17 22 29 34 40 45 46 46 47
65 70 78 85 87 80 77 68 67 54 58 78 73 61 85 62 71 60 57 48 38 34 30 25 24 18 14 17 24 26 26 25 19 17 21 33 42 45 42 42 45 48 52
60 61 68 69 79 85 74 75 64 46 67 72 66 47 68 52 65 44 37 32 27 22 22 21 20 16 18 14 14 26 29 27 22 15 26 27 24 28 27 22 24 24 27
57 61 59 69 63 72 73 65 71 71 57 67 69 73 64 62 50 37 30 25 25 17 21 16 17 13 5 9 19 27 36 33 21 23 27 30 23 19 20 23 21 26 24
44 51 58 56 60 58 60 62 46 57 56 69 59 55 61 57 54 46 45 50 35 23 9 7 6 10 12 20 24 30 30 28 28 29 28 24 20 20 17 20 23 26 33
42 48 51 57 54 59 58 55 53 55 51 65 64 59 51 29 35 41 36 33 39 39 31 26 18 13 18 26 30 31 30 27 28 25 19 11 16 19 28 27 23 28 29
Wind_Direction_500mb
260 198 200 200 201 208 213 216 207 198 216 220 210 210 207 214 213 207 211 223 240 231 246 244 246 253 254 243 254 261 273 316 290 289 304 293 283 264 358 156 313 298 319
249 251 202 203 201 208 214 217 217 205 214 221 220 211 213 213 221 206 216 219 224 216 224 228 231 242 242 244 264 279 269 231 295 322 344 336 108 99 30 2 27 329 340
264 267 244 209 203 207 212 218 221 219 214 220 221 211 210 210 218 207 215 219 226 215 224 218 216 233 240 230 257 271 260 210 355 0 11 351 7 18 62 31 21 10 1
266 276 265 250 208 206 216 221 224 220 219 213 213 214 206 205 213 207 216 223 222 216 220 215 218 229 203 235 248 242 217 190 148 119 46 14 358 347 329 316 347 346 357
20 10 21 15 231 214 212 221 220 220 222 222 212 214 215 210 209 206 216 226 228 219 213 210 216 212 215 229 241 229 207 204 175 182 234 54 348 27 350 337 328 345 337
23 19 6 4 11 29 226 212 215 216 217 221 222 211 218 208 207 210 213 225 223 206 209 209 212 207 225 224 223 219 209 221 213 197 121 183 63 313 350 335 340 331 339
22 19 12 0 354 356 346 334 210 203 209 220 223 221 218 218 213 214 215 217 217 208 209 209 209 210 213 218 209 212 206 206 195 181 183 156 343 319 344 329 324 332 351
14 13 8 1 2 359 352 1 34 271 233 218 220 222 223 229 216 214 215 214 219 217 209 209 207 205 206 206 205 195 195 186 193 194 200 153 301 305 296 331 328 330 330
4 4 358 351 354 356 348 1 339 287 310 218 247 234 232 228 220 220 214 211 215 216 210 203 203 202 200 198 190 185 190 180 186 194 174 178 192 275 341 311 335 325 327
357 353 351 347 344 350 347 342 342 310 325 325 297 259 246 236 226 226 211 202 208 214 206 199 198 194 190 180 183 186 187 185 162 204 230 202 253 280 272 294 305 319 306
348 344 344 343 340 340 343 340 336 329 324 317 296 275 253 237 228 220 213 202 205 211 203 200 194 188 184 177 176 189 187 187 187 215 211 267 289 300 304 324 314 292 302
346 343 344 343 340 334 334 336 330 325 317 309 293 271 258 240 229 223 218 204 205 206 206 196 186 181 183 181 182 183 193 181 180 215 237 239 255 289 315 309 293 314 306
336 341 345 341 340 340 338 329 327 322 319 312 299 290 253 241 238 231 215 200 200 196 193 182 181 181 184 179 171 175 193 201 208 228 238 261 284 300 301 308 304 308 289
333 328 331 332 334 329 325 320 323 322 316 309 299 286 257 238 224 213 199 195 195 191 178 179 178 179 172 179 188 192 198 195 203 233 261 282 289 288 310 306 315 305 306
331 328 327 327 324 319 314 311 304 301 302 302 297 286 239 230 228 207 195 191 179 175 175 169 171 175 171 174 176 196 194 204 228 262 287 285 286 307 306 315 318 323 326
333 330 326 322 320 320 315 309 308 305 296 297 294 276 237 200 180 186 185 178 176 168 173 173 179 171 190 186 192 200 209 234 255 268 275 288 328 304 301 308 311 319 322
334 331 327 324 320 319 316 313 310 303 291 293 282 238 200 183 183 176 173 172 172 167 168 165 182 189 198 196 206 214 232 252 268 271 273 279 255 264 282 287 290 291 306
347 343 338 332 326 315 313 313 309 306 294 286 276 246 195 177 169 164 170 165 168 168 169 173 193 193 203 213 218 226 250 269 274 289 289 285 295 295 287 270 277 286 287
353 1 0 358 349 337 339 334 325 310 288 271 265 209 174 159 157 162 168 167 172 175 176 179 189 201 210 211 236 268 275 267 251 265 273 273 259 258 276 283 287 285 284
6 6 11 11 8 5 13 22 22 32 133 140 146 184 171 166 163 172 174 172 181 184 182 188 202 209 225 255 252 254 270 280 261 270 289 276 267 262 261 272 272 270 273
5 4 7 11 7 14 22 33 38 45 67 82 85 98 138 155 155 158 164 166 167 168 168 173 187 181 303 308 309 304 302 284 271 236 220 281 277 274 274 276 278 278 280
358 7 13 17 14 12 14 19 35 38 57 74 71 57 81 80 101 104 102 104 100 98 92 71 43 17 356 353 345 325 319 315 289 270 252 247 259 276 285 284 284 285 286
16 13 8 14 16 10 9 22 19 24 41 67 58 62 71 62 70 65 66 72 70 64 61 49 63 6 13 355 317 316 322 329 329 303 284 304 303 302 307 312 326 325 320
359 357 4 9 13 8 17 13 16 35 43 55 60 55 52 50 58 59 68 73 89 104 108 128 128 148 323 242 274 283 299 305 300 292 312 314 315 329 341 321 321 316 307
358 7 4 6 8 7 9 19 19 23 31 47 47 45 45 46 51 47 51 47 44 58 55 69 138 207 243 284 298 308 314 317 313 305 313 325 339 305 298 291 285 290 286
5 7 6 8 13 11 15 14 16 21 32 42 40 37 46 37 36 38 32 38 32 34 33 36 29 10 357 348 338 334 332 330 315 319 326 348 298 298 298 307 303 290 293
Wind_Speed_850mb
38 68 72 72 74 73 70 70 72 70 68 61 59 54 54 54 47 45 40 41 40 23 21 21 32 29 24 22 28 26 18 12 22 27 28 16 11 18 10 2 12 16 24
50 43 72 77 84 84 82 77 76 74 78 74 65 60 55 56 49 48 47 48 45 31 38 33 29 21 24 24 24 22 15 2 15 21 15 12 19 11 4 13 8 18 32
41 48 44 83 87 90 88 84 83 88 86 79 69 56 51 49 49 50 54 61 48 43 46 36 32 24 23 20 22 16 9 12 5 13 12 9 10 13 16 14 21 18 24
47 55 53 47 87 93 97 96 92 91 97 91 76 74 75 73 71 68 67 68 58 60 50 39 37 26 26 26 22 14 12 6 9 2 5 11 15 10 15 13 18 29 29
72 71 67 59 54 95 102 107 101 94 91 96 89 77 76 72 66 63 67 66 61 60 47 41 37 31 33 29 22 14 14 8 15 6 6 3 5 10 8 19 30 25 23
69 77 76 60 56 23 67 105 106 97 82 81 81 74 78 73 68 76 72 71 60 53 53 47 39 36 35 28 23 17 16 15 13 12 8 4 4 10 9 15 22 29 25
69 70 78 84 87 86 83 39 81 67 63 72 71 77 70 73 68 65 76 81 70 62 59 53 45 41 37 33 23 22 18 17 12 18 12 2 3 7 7 12 16 23 20
75 75 76 83 90 98 98 73 36 36 74 68 64 62 75 58 75 65 81 78 65 59 63 54 47 44 37 32 26 23 21 18 15 13 9 11 4 11 11 12 19 27 24
68 70 73 83 86 89 96 89 43 79 89 34 23 41 52 72 73 67 77 63 54 61 56 51 49 42 40 32 31 29 22 17 16 11 11 6 9 13 9 12 14 21 26
68 72 73 81 86 74 89 84 58 50 45 38 30 34 58 65 68 69 75 71 67 67 55 53 50 45 38 36 34 27 25 22 18 15 10 8 7 7 12 13 14 14 21
81 75 78 77 80 82 72 85 76 63 61 58 47 53 62 65 62 68 77 70 71 66 56 55 51 46 39 41 34 27 24 22 23 17 11 5 10 12 16 13 11 22 20
100 72 72 81 84 93 89 77 80 69 61 59 53 52 60 64 61 69 67 65 67 67 54 53 51 47 46 44 38 32 24 16 11 18 14 10 13 16 11 17 18 18 21
84 86 82 85 82 83 87 86 74 84 77 65 59 61 63 64 69 74 66 65 71 57 52 52 52 46 42 41 37 36 33 27 25 18 15 12 14 16 19 21 25 25 28
75 79 82 83 91 89 90 85 80 75 85 73 64 68 67 68 73 72 70 69 63 56 54 51 46 41 37 39 40 37 30 20 17 21 14 14 14 18 23 32 27 26 30
78 83 88 92 89 92 97 99 91 86 93 98 72 61 67 78 77 67 65 59 58 65 58 54 48 41 37 33 30 26 23 21 19 15 14 12 22 21 23 27 30 30 30
88 87 84 83 91 99 94 95 98 94 89 94 75 66 74 55 62 63 61 60 61 58 53 53 51 47 52 45 42 33 20 15 16 15 18 20 16 19 26 33 28 26 24
80 85 85 94 85 83 93 103 106 85 88 89 67 52 69 66 74 66 63 62 64 59 57 50 50 50 44 40 37 24 20 19 20 20 18 22 13 25 23 21 25 25 24
79 81 82 77 78 77 77 81 93 88 81 74 63 46 69 77 65 63 60 58 58 61 60 55 51 49 41 31 24 19 17 18 18 18 17 18 24 21 25 28 29 30 27
74 79 77 75 72 57 49 51 52 57 41 44 54 49 67 71 69 69 67 67 67 65 59 59 49 37 29 23 15 19 20 19 16 17 17 22 19 30 35 34 34 32 25
72 76 81 85 78 59 50 53 52 35 14 21 32 72 80 85 80 70 64 61 60 53 47 41 31 22 15 13 14 21 21 16 13 2 22 22 27 32 33 38 38 36 29
67 80 83 95 80 82 70 68 67 67 48 41 42 43 64 75 79 69 61 52 47 39 27 14 6 2 1 5 10 19 18 18 17 19 17 22 29 34 40 45 46 46 47
65 70 78 85 87 80 77 68 67 54 58 78 73 61 85 62 71 60 57 48 38 34 30 25 24 18 14 17 24 26 26 25 19 17 21 33 42 45 42 42 45 48 52
60 61 68 69 79 85 74 75 64 46 67 72 66 47 68 52 65 44 37 32 27 22 22 21 20 16 18 14 14 26 29 27 22 15 26 27 24 28 27 22 24 24 27
57 61 59 69 63 72 73 65 71 71 57 67 69 73 64 62 50 37 30 25 25 17 21 16 17 13 5 9 19 27 36 33 21 23 27 30 23 19 20 23 21 26 24
44 51 58 56 60 58 60 62 46 57 56 69 59 55 61 57 54 46 45 50 35 23 9 7 6 10 12 20 24 30 30 28 28 29 28 24 20 20 17 20 23 26 33
42 48 51 57 54 59 58 55 53 55 51 65 64 59 51 29 35 41 36 33 39 39 31 26 18 13 18 26 30 31 30 27 28 25 19 11 16 19 28 27 23 28 29
Wind_Direction_850mb
260 198 200 200 201 208 213 216 207 198 216 220 210 210 207 214 213 207 211 223 240 231 246 244 246 253 254 243 254 261 273 316 290 289 304 293 283 264 358 156 313 298 319
249 251 202 203 201 208 214 217 217 205 214 221 220 211 213 213 221 206 216 219 224 216 224 228 231 242 242 244 264 279 269 231 295 322 344 336 108 99 30 2 27 329 340
264 267 244 209 203 207 212 218 221 219 214 220 221 211 210 210 218 207 215 219 226 215 224 218 216 233 240 230 257 271 260 210 355 0 11 351 7 18 62 31 21 10 1
266 276 265 250 208 206 216 221 224 220 219 213 213 214 206 205 213 207 216 223 222 216 220 215 218 229 203 235 248 242 217 190 148 119 46 14 358 347 329 316 347 346 357
20 10 21 15 231 214 212 221 220 220 222 222 212 214 215 210 209 206 216 226 228 219 213 210 216 212 215 229 241 229 207 204 175 182 234 54 348 27 350 337 328 345 337
23 19 6 4 11 29 226 212 215 216 217 221 222 211 218 208 207 210 213 225 223 206 209 209 212 207 225 224 223 219 209 221 213 197 121 183 63 313 350 335 340 331 339
22 19 12 0 354 356 346 334 210 203 209 220 223 221 218 218 213 214 215 217 217 208 209 209 209 210 213 218 209 212 206 206 195 181 183 156 343 319 344 329 324 332 351
14 13 8 1 2 359 352 1 34 271 233 218 220 222 223 229 216 214 215 214 219 217 209 209 207 205 206 206 205 195 195 186 193 194 200 153 301 305 296 331 328 330 330
4 4 358 351 354 356 348 1 339 287 310 218 247 234 232 228 220 220 214 211 215 216 210 203 203 202 200 198 190 185 190 180 186 194 174 178 192 275 341 311 335 325 327
357 353 351 347 344 350 347 342 342 310 325 325 297 259 246 236 226 226 211 202 208 214 206 199 198 194 190 180 183 186 187 185 162 204 230 202 253 280 272 294 305 319 306
348 344 344 343 340 340 343 340 336 329 324 317 296 275 253 237 228 220 213 202 205 211 203 200 194 188 184 177 176 189 187 187 187 215 211 267 289 300 304 324 314 292 302
346 343 344 343 340 334 334 336 330 325 317 309 293 271 258 240 229 223 218 204 205 206 206 196 186 181 183 181 182 183 193 181 180 215 237 239 255 289 315 309 293 314 306
336 341 345 341 340 340 338 329 327 322 319 312 299 290 253 241 238 231 215 200 200 196 193 182 181 181 184 179 171 175 193 201 208 228 238 261 284 300 301 308 304 308 289
333 328 331 332 334 329 325 320 323 322 316 309 299 286 257 238 224 213 199 195 195 191 178 179 178 179 172 179 188 192 198 195 203 233 261 282 289 288 310 306 315 305 306
331 328 327 327 324 319 314 311 304 301 302 302 297 286 239 230 228 207 195 191 179 175 175 169 171 175 171 174 176 196 194 204 228 262 287 285 286 307 306 315 318 323 326
333 330 326 322 320 320 315 309 308 305 296 297 294 276 237 200 180 186 185 178 176 168 173 173 179 171 190 186 192 200 209 234 255 268 275 288 328 304 301 308 311 319 322
334 331 327 324 320 319 316 313 310 303 291 293 282 238 200 183 183 176 173 172 172 167 168 165 182 189 198 196 206 214 232 252 268 271 273 279 255 264 282 287 290 291 306
347 343 338 332 326 315 313 313 309 306 294 286 276 246 195 177 169 164 170 165 168 168 169 173 193 193 203 213 218 226 250 269 274 289 289 285 295 295 287 270 277 286 287
353 1 0 358 349 337 339 334 325 310 288 271 265 209 174 159 157 162 168 167 172 175 176 179 189 201 210 211 236 268 275 267 251 265 273 273 259 258 276 283 287 285 284
6 6 11 11 8 5 13 22 22 32 133 140 146 184 171 166 163 172 174 172 181 184 182 188 202 209 225 255 252 254 270 280 261 270 289 276 267 262 261 272 272 270 273
5 4 7 11 7 14 22 33 38 45 67 82 85 98 138 155 155 158 164 166 167 168 168 173 187 181 303 308 309 304 302 284 271 236 220 281 277 274 274 276 278 278 280
358 7 13 17 14 12 14 19 35 38 57 74 71 57 81 80 101 104 102 104 100 98 92 71 43 17 356 353 345 325 319 315 289 270 252 247 259 276 285 284 284 285 286
16 13 8 14 16 10 9 22 19 24 41 67 58 62 71 62 70 65 66 72 70 64 61 49 63 6 13 355 317 316 322 329 329 303 284 304 303 302 307 312 326 325 320
359 357 4 9 13 8 17 13 16 35 43 55 60 55 52 50 58 59 68 73 89 104 108 128 128 148 323 242 274 283 299 305 300 292 312 314 315 329 341 321 321 316 307
358 7 4 6 8 7 9 19 19 23 31 47 47 45 45 46 51 47 51 47 44 58 55 69 138 207 243 284 298 308 314 317 313 305 313 325 339 305 298 291 285 290 286
5 7 6 8 13 11 15 14 16 21 32 42 40 37 46 37 36 38 32 38 32 34 33 36 29 10 357 348 338 334 332 330 315 319 326 348 298 298 298 307 303 290 293